Location: Newark
(41.0400°S, 62.7845°W)
Time: 22:52:27
(UTC+00:00)

Vanguard 2 - Pass Details

Date: 06 December 2021
Orbit: 554 x 2935 km, 32.9° (Epoch: 27 January)

Event Time Altitude Azimuth Distance (km) Brightness Sun altitude
Rises 07:28:45 0° 270° (W) 6,744 11.9 -10.4°
Reaches altitude 10° 07:33:35 10° 273° (W) 5,592 11.4 -9.7°
Maximum altitude 07:49:07 55° 344° (NNW) 2,491 9.8 -7.5°
Drops below altitude 10° 07:59:11 10° 58° (ENE) 3,742 11.3 -6.0°
Sets 08:01:47 0° 63° (ENE) 4,448 11.8 -5.6°
